GW4165 Weather Reports


time (UTC)temp
F
wind
direction
speed
knots
gust
knots
rain 1hr
in
rain 24hr
in
rain mn
in
humidity
%
barometer
mb
20260906191647 72 327 0.0 0.0 0.00 0.00 0.00 63 1021.6
20260906191146 72 323 0.0 0.0 0.00 0.00 0.00 62 1021.8
20260906190640 72 334 0.0 0.0 0.00 0.00 0.00 62 1021.7
20260906190135 72 317 0.0 0.0 0.00 0.00 0.00 62 1022.0
20260906185634 72 334 0.0 0.0 0.00 0.00 0.00 62 1021.8
20260906185133 73 3 0.0 0.0 0.00 0.00 0.00 62 1021.9
20260906184628 72 327 0.0 0.0 0.00 0.00 0.00 65 1022.0
20260906184124 72 322 0.0 0.0 0.00 0.00 0.00 64 1022.1
20260906183620 72 330 0.0 0.0 0.00 0.00 0.00 63 1022.0
20260906183115 72 329 0.0 0.0 0.00 0.00 0.00 65 1022.1
20260906182610 72 310 0.0 0.0 0.00 0.00 0.00 66 1022.0
20260906182106 72 342 0.0 0.9 0.00 0.00 0.00 65 1022.1
20260906181601 72 337 0.0 0.0 0.00 0.00 0.00 65 1022.1
20260906181052 72 9 0.0 0.0 0.00 0.00 0.00 64 1022.0
20260906180551 72 324 0.0 0.0 0.00 0.00 0.00 65 1022.3
20260906180050 72 330 0.0 0.0 0.00 0.00 0.00 64 1022.1
20260906175549 72 356 0.0 0.9 0.00 0.00 0.00 64 1022.1
20260906175044 72 323 0.0 0.0 0.00 0.00 0.00 62 1022.2
20260906174542 72 331 0.0 0.0 0.00 0.00 0.00 61 1022.0
20260906174037 72 328 0.0 0.0 0.00 0.00 0.00 63 1022.2
20260906173532 72 337 0.0 0.0 0.00 0.00 0.00 62 1022.2
20260906173029 72 326 0.9 0.9 0.00 0.00 0.00 61 1022.3
20260906172522 72 325 0.0 0.0 0.00 0.00 0.00 62 1022.3
20260906172018 72 351 0.0 0.9 0.00 0.00 0.00 58 1022.2
20260906171512 72 338 0.0 0.0 0.00 0.00 0.00 57 1022.1
20260906171008 71 337 0.0 0.0 0.00 0.00 0.00 57 1022.3
20260906170504 72 336 0.0 0.0 0.00 0.00 0.00 58 1022.3
20260906170001 72 329 0.0 0.0 0.00 0.00 0.00 60 1022.1
20260906165459 72 350 0.9 0.9 0.00 0.00 0.00 60 1022.1
20260906164955 72 354 0.0 0.0 0.00 0.00 0.00 60 1022.3
20260906164453 72 335 0.0 0.0 0.00 0.00 0.00 60 1022.2
20260906163950 71 41 0.0 0.0 0.00 0.00 0.00 60 1022.2
20260906163446 71 330 0.0 0.9 0.00 0.00 0.00 61 1022.3
20260906162944 71 347 0.0 0.9 0.00 0.00 0.00 61 1022.3
20260906162443 71 335 0.0 0.0 0.00 0.00 0.00 62 1022.1
20260906161938 71 0 0.9 0.9 0.00 0.00 0.00 61 1022.2
20260906161437 71 340 0.0 0.0 0.00 0.00 0.00 64 1022.4
20260906160937 71 332 0.0 0.0 0.00 0.00 0.00 68 1022.4
20260906160430 71 337 0.0 0.0 0.00 0.00 0.00 69 1022.4
20260906155929 71 329 0.0 0.0 0.00 0.00 0.00 70 1022.3
20260906155427 71 338 0.0 0.0 0.00 0.00 0.00 69 1022.3
20260906154924 71 330 0.0 0.0 0.00 0.00 0.00 70 1022.5
20260906154419 71 332 0.0 0.0 0.00 0.00 0.00 71 1022.2
20260906153918 70 331 0.0 0.0 0.00 0.00 0.00 72 1022.2
20260906153416 71 350 0.0 0.0 0.00 0.00 0.00 71 1022.2
20260906152912 70 334 0.0 0.0 0.00 0.00 0.00 71 1022.4
20260906152407 70 341 0.0 0.0 0.00 0.00 0.00 70 1022.5
20260906151906 70 336 0.0 0.0 0.00 0.00 0.00 71 1022.5
20260906151356 70 330 0.0 0.0 0.00 0.00 0.00 73 1022.6
20260906150851 69 334 0.0 0.0 0.00 0.00 0.00 76 1022.6
20260906150347 69 328 0.0 0.0 0.00 0.00 0.00 75 1022.5
20260906145846 69 332 0.0 0.0 0.00 0.00 0.00 74 1022.5
20260906145345 69 331 0.0 0.0 0.00 0.00 0.00 77 1022.6
20260906144840 68 321 0.0 0.0 0.00 0.00 0.00 80 1022.5
20260906144334 68 318 0.0 0.0 0.00 0.00 0.00 76 1022.7
20260906143834 68 319 0.0 0.0 0.00 0.00 0.00 76 1022.5
20260906143325 67 329 0.0 0.0 0.00 0.00 0.00 68 1022.5
20260906142821 66 314 0.0 0.0 0.00 0.00 0.00 79 1022.2
20260906142321 66 314 0.0 0.0 0.00 0.00 0.00 79 1022.4
20260906141820 66 314 0.0 0.0 0.00 0.00 0.00 80 1022.4
20260906141315 65 324 0.0 0.0 0.00 0.00 0.00 78 1022.6
20260906140814 65 313 0.0 0.0 0.00 0.00 0.00 83 1022.3
20260906140309 64 329 0.0 0.0 0.00 0.00 0.00 85 1022.4
20260906135807 63 329 0.0 0.0 0.00 0.00 0.00 85 1022.3
20260906135305 61 329 0.0 0.0 0.00 0.00 0.00 91 1022.4
20260906134757 60 329 0.0 0.0 0.00 0.00 0.00 96 1022.4
20260906134252 59 318 0.0 0.0 0.00 0.00 0.00 97 1022.4
20260906133748 59 318 0.0 0.0 0.00 0.00 0.00 97 1022.3
20260906133243 59 318 0.0 0.0 0.00 0.00 0.00 98 1022.3
20260906132738 58 318 0.0 0.0 0.00 0.00 0.00 98 1022.4
20260906132228 58 318 0.0 0.0 0.00 0.00 0.00 98 1022.2
20260906131724 57 318 0.0 0.0 0.00 0.00 0.00 98 1022.2
20260906131218 57 318 0.0 0.0 0.00 0.00 0.00 98 1022.5
20260906130713 56 318 0.0 0.0 0.00 0.00 0.00 98 1022.5
20260906130203 56 318 0.0 0.0 0.00 0.00 0.00 98 1022.3
20260906125701 56 318 0.0 0.0 0.00 0.00 0.00 98 1022.4
20260906125200 55 318 0.0 0.0 0.00 0.00 0.00 98 1022.4
20260906124655 55 318 0.0 0.0 0.00 0.00 0.00 98 1022.5
20260906124151 54 318 0.0 0.0 0.00 0.00 0.00 98 1022.5
20260906123649 54 318 0.0 0.0 0.00 0.00 0.00 98 1022.3
20260906123145 54 318 0.0 0.0 0.00 0.00 0.00 98 1022.4
20260906122644 53 318 0.0 0.0 0.00 0.00 0.00 98 1022.2
20260906122140 53 318 0.0 0.0 0.00 0.00 0.00 98 1022.4
20260906121636 53 318 0.0 0.0 0.00 0.00 0.00 98 1022.2
20260906121132 53 318 0.0 0.0 0.00 0.00 0.00 98 1022.3
20260906120627 53 318 0.0 0.0 0.00 0.00 0.00 97 1022.3
20260906120125 52 318 0.0 0.0 0.00 0.00 0.00 97 1022.3
20260906115624 52 318 0.0 0.0 0.00 0.00 0.00 97 1022.1
20260906115120 52 318 0.0 0.0 0.00 0.00 0.00 97 1021.9
20260906114619 52 318 0.0 0.0 0.00 0.00 0.00 97 1022.1
20260906114114 52 318 0.0 0.0 0.00 0.00 0.00 97 1022.2
20260906113609 52 318 0.0 0.0 0.00 0.00 0.00 97 1022.0
20260906113103 52 318 0.0 0.0 0.00 0.00 0.00 97 1022.0
20260906112603 52 318 0.0 0.0 0.00 0.00 0.00 97 1021.7
20260906112059 52 318 0.0 0.0 0.00 0.00 0.00 97 1021.9
20260906111559 52 318 0.0 0.0 0.00 0.00 0.00 97 1021.9
20260906111055 52 318 0.0 0.0 0.00 0.00 0.00 97 1021.6
20260906110554 52 318 0.0 0.0 0.00 0.00 0.00 97 1021.7
20260906110054 52 318 0.0 0.0 0.00 0.00 0.00 97 1021.6
20260906105548 52 318 0.0 0.0 0.00 0.00 0.00 97 1021.7
20260906105045 52 318 0.0 0.0 0.00 0.00 0.00 97 1021.6
20260906104543 52 318 0.0 0.0 0.00 0.00 0.00 97 1021.6
20260906104038 52 318 0.0 0.0 0.00 0.00 0.00 97 1021.7
20260906103536 52 318 0.0 0.0 0.00 0.00 0.00 97 1021.8
20260906103031 52 318 0.0 0.0 0.00 0.00 0.00 97 1021.7
20260906102531 52 318 0.0 0.0 0.00 0.00 0.00 97 1021.8
20260906102027 52 318 0.0 0.0 0.00 0.00 0.00 97 1021.6
20260906101526 52 318 0.0 0.0 0.00 0.00 0.00 97 1021.8
20260906101021 52 318 0.0 0.0 0.00 0.00 0.00 97 1021.6
20260906100517 52 318 0.0 0.0 0.00 0.00 0.00 97 1021.5
20260906100012 52 318 0.0 0.0 0.00 0.00 0.00 97 1021.8
20260906095507 52 318 0.0 0.0 0.00 0.00 0.00 97 1021.7
20260906095002 53 318 0.0 0.0 0.00 0.00 0.00 97 1021.9
20260906094501 53 318 0.0 0.0 0.00 0.00 0.00 97 1021.8
20260906093957 53 318 0.0 0.0 0.00 0.00 0.00 97 1021.7
20260906093453 53 318 0.0 0.0 0.00 0.00 0.00 97 1021.8
20260906092953 53 318 0.0 0.0 0.00 0.00 0.00 97 1021.8
20260906092448 53 318 0.0 0.0 0.00 0.00 0.00 97 1021.8
20260906091943 53 318 0.0 0.0 0.00 0.00 0.00 97 1021.6
20260906091439 53 318 0.0 0.0 0.00 0.00 0.00 97 1021.9
20260906090935 53 318 0.0 0.0 0.00 0.00 0.00 97 1021.9
20260906090430 53 318 0.0 0.0 0.00 0.00 0.00 97 1021.9
20260906085924 53 318 0.0 0.0 0.00 0.00 0.00 97 1021.6
20260906085423 53 318 0.0 0.0 0.00 0.00 0.00 97 1021.7
20260906084923 53 318 0.0 0.0 0.00 0.00 0.00 97 1021.6
20260906084418 53 318 0.0 0.0 0.00 0.00 0.00 97 1021.6
20260906083917 53 318 0.0 0.0 0.00 0.00 0.00 97 1021.7
20260906083413 53 318 0.0 0.0 0.00 0.00 0.00 97 1021.8
20260906082912 53 318 0.0 0.0 0.00 0.00 0.00 97 1021.4
20260906082407 53 318 0.0 0.0 0.00 0.00 0.00 97 1021.5
20260906081903 53 318 0.0 0.0 0.00 0.00 0.00 97 1021.4
20260906081358 53 318 0.0 0.0 0.00 0.00 0.00 97 1021.4
20260906080854 53 318 0.0 0.0 0.00 0.00 0.00 97 1021.2
20260906080351 53 318 0.0 0.0 0.00 0.00 0.00 97 1021.1
20260906075849 53 318 0.0 0.0 0.00 0.00 0.00 97 1021.3
20260906075344 53 318 0.0 0.0 0.00 0.00 0.00 97 1021.6
20260906074840 53 318 0.0 0.0 0.00 0.00 0.00 97 1021.7
20260906074339 53 318 0.0 0.0 0.00 0.00 0.00 97 1021.7
20260906073838 53 318 0.0 0.0 0.00 0.00 0.00 97 1021.5
20260906073333 53 318 0.0 0.0 0.00 0.00 0.00 97 1021.6
20260906072830 53 318 0.0 0.0 0.00 0.00 0.00 97 1021.5
20260906072325 54 318 0.0 0.0 0.00 0.00 0.00 97 1021.5
20260906071821 54 318 0.0 0.0 0.00 0.00 0.00 97 1021.5
20260906071315 54 318 0.0 0.0 0.00 0.00 0.00 97 1021.4
20260906070813 54 318 0.0 0.0 0.00 0.00 0.00 97 1021.4
20260906070308 54 318 0.0 0.0 0.00 0.00 0.00 97 1021.4
20260906065807 54 318 0.0 0.0 0.00 0.00 0.00 97 1021.4
20260906065305 54 318 0.0 0.0 0.00 0.00 0.00 97 1021.5
20260906064758 54 318 0.0 0.0 0.00 0.00 0.00 97 1021.3
20260906064254 54 318 0.0 0.0 0.00 0.00 0.00 97 1021.2
20260906063749 54 318 0.0 0.0 0.00 0.00 0.00 97 1021.1
20260906063244 54 318 0.0 0.0 0.00 0.00 0.00 97 1021.3
20260906062739 54 318 0.0 0.0 0.00 0.00 0.00 97 1021.3
20260906062238 54 318 0.0 0.0 0.00 0.00 0.00 97 1021.3
20260906061734 54 318 0.0 0.0 0.00 0.00 0.00 97 1021.3
20260906061231 55 318 0.0 0.0 0.00 0.00 0.00 97 1021.2
20260906060726 55 318 0.0 0.0 0.00 0.00 0.00 97 1021.4
20260906060223 55 318 0.0 0.0 0.00 0.00 0.00 97 1021.3
20260906055719 55 318 0.0 0.0 0.00 0.00 0.00 97 1021.2
20260906055214 55 318 0.0 0.0 0.00 0.00 0.00 97 1021.0
20260906054710 55 318 0.0 0.0 0.00 0.00 0.00 97 1021.0
20260906054209 55 318 0.0 0.0 0.00 0.00 0.00 97 1021.0
20260906053706 55 318 0.0 0.0 0.00 0.00 0.00 97 1020.9
20260906053201 55 318 0.0 0.0 0.00 0.00 0.00 97 1020.9
20260906052656 55 318 0.0 0.0 0.00 0.00 0.00 97 1020.9
20260906052153 55 318 0.0 0.0 0.00 0.00 0.00 97 1020.8
20260906051649 55 318 0.0 0.0 0.00 0.00 0.00 97 1020.8
20260906051149 55 318 0.0 0.0 0.00 0.00 0.00 96 1020.7
20260906050644 55 318 0.0 0.0 0.00 0.00 0.00 96 1020.8
20260906050139 56 318 0.0 0.0 0.00 0.00 0.00 97 1020.7
20260906045638 56 318 0.0 0.0 0.00 0.00 0.00 96 1020.7
20260906045133 56 318 0.0 0.0 0.00 0.00 0.00 96 1020.7
20260906044629 56 318 0.0 0.0 0.00 0.00 0.00 96 1020.9
20260906044124 56 318 0.0 0.0 0.00 0.00 0.00 96 1020.9
20260906043621 56 318 0.0 0.0 0.00 0.00 0.00 96 1020.8
20260906043115 56 318 0.0 0.0 0.00 0.00 0.00 96 1020.9
20260906042614 56 318 0.0 0.0 0.00 0.00 0.00 96 1020.9
20260906042109 56 318 0.0 0.0 0.00 0.00 0.00 96 1020.7
20260906041606 56 318 0.0 0.0 0.00 0.00 0.00 96 1020.7
20260906041100 57 318 0.0 0.0 0.00 0.00 0.00 96 1020.7
20260906040556 57 318 0.0 0.0 0.00 0.00 0.00 96 1020.5
20260906040051 57 318 0.0 0.0 0.00 0.00 0.00 96 1020.4
20260906035546 57 318 0.0 0.0 0.00 0.00 0.00 96 1020.4
20260906035042 57 318 0.0 0.0 0.00 0.00 0.00 96 1020.5
20260906034542 57 318 0.0 0.0 0.00 0.00 0.00 96 1020.3
20260906034037 57 318 0.0 0.0 0.00 0.00 0.00 96 1020.3
20260906033532 58 318 0.0 0.0 0.00 0.00 0.00 96 1020.3
20260906033022 58 318 0.0 0.0 0.00 0.00 0.00 96 1020.3
20260906032518 58 318 0.0 0.0 0.00 0.00 0.00 96 1020.3
20260906032012 58 318 0.0 0.0 0.00 0.00 0.00 96 1020.1
20260906031508 58 318 0.0 0.0 0.00 0.00 0.00 96 1020.5
20260906031003 58 318 0.0 0.0 0.00 0.00 0.00 96 1020.2
20260906030457 59 318 0.0 0.0 0.00 0.00 0.00 96 1020.2
20260906025952 59 318 0.0 0.0 0.00 0.00 0.00 96 1020.4
20260906025451 59 318 0.0 0.0 0.00 0.00 0.00 96 1020.3
20260906024950 59 318 0.0 0.0 0.00 0.00 0.00 96 1020.1
20260906024445 59 318 0.0 0.0 0.00 0.00 0.00 96 1020.0
20260906023944 59 318 0.0 0.0 0.00 0.00 0.00 95 1019.9
20260906023441 59 318 0.0 0.0 0.00 0.00 0.00 95 1020.0
20260906022936 59 318 0.0 0.0 0.00 0.00 0.00 95 1019.9
20260906022432 59 318 0.0 0.0 0.00 0.00 0.00 95 1020.0
20260906021927 60 318 0.0 0.0 0.00 0.00 0.00 95 1020.1
20260906021426 60 318 0.0 0.0 0.00 0.00 0.00 95 1019.9
20260906020921 60 318 0.0 0.0 0.00 0.00 0.00 95 1020.0
20260906020415 60 318 0.0 0.0 0.00 0.00 0.00 95 1020.1
20260906015909 60 318 0.0 0.0 0.00 0.00 0.00 95 1020.1
20260906015409 60 318 0.0 0.0 0.00 0.00 0.00 95 1020.2
20260906014908 60 318 0.0 0.0 0.00 0.00 0.00 95 1020.0
20260906014403 60 318 0.0 0.0 0.00 0.00 0.00 95 1020.1
20260906013859 60 318 0.0 0.0 0.00 0.00 0.00 95 1020.0
20260906013355 61 318 0.0 0.0 0.00 0.00 0.00 94 1020.0
20260906012850 61 318 0.0 0.0 0.00 0.00 0.00 94 1020.0
20260906012345 61 318 0.0 0.0 0.00 0.00 0.00 94 1020.2
20260906011844 61 318 0.0 0.0 0.00 0.00 0.00 94 1020.0
20260906011339 61 318 0.0 0.0 0.00 0.00 0.00 94 1020.1
20260906010835 62 318 0.0 0.0 0.00 0.00 0.00 94 1020.2
20260906010331 62 318 0.0 0.0 0.00 0.00 0.00 93 1020.2
20260906005827 62 318 0.0 0.0 0.00 0.00 0.00 93 1020.1
20260906005326 62 318 0.0 0.0 0.00 0.00 0.00 93 1020.1
20260906004824 63 318 0.0 0.0 0.00 0.00 0.00 93 1020.2
20260906004324 63 318 0.0 0.0 0.00 0.00 0.00 92 1020.1
20260906003819 63 318 0.0 0.0 0.00 0.00 0.00 92 1020.3
20260906003315 64 318 0.0 0.0 0.00 0.00 0.00 91 1020.3
20260906002810 64 317 0.0 0.0 0.00 0.00 0.00 91 1020.0
20260906002309 64 318 0.0 0.0 0.00 0.00 0.00 90 1020.3
20260906001806 64 318 0.0 0.0 0.00 0.00 0.00 90 1020.2
20260906001301 65 318 0.0 0.0 0.00 0.00 0.00 90 1020.3
20260906000755 65 318 0.0 0.0 0.00 0.00 0.00 89 1020.3
20260906000250 66 318 0.0 0.0 0.00 0.00 0.00 89 1020.4
20260905235745 66 318 0.0 0.0 0.00 0.00 0.00 88 1019.9
20260905235244 66 318 0.0 0.0 0.00 0.00 0.00 87 1020.2
20260905234740 66 318 0.0 0.0 0.00 0.00 0.00 87 1020.1
20260905234235 66 313 0.0 0.0 0.00 0.00 0.00 86 1020.2
20260905233731 67 313 0.0 0.0 0.00 0.00 0.00 85 1020.4
20260905233230 67 314 0.0 0.0 0.00 0.00 0.00 84 1020.6
20260905232730 67 319 0.0 0.0 0.00 0.00 0.00 84 1020.4
20260905232226 67 323 0.9 0.9 0.00 0.00 0.00 83 1020.3
20260905231721 67 318 0.9 1.7 0.00 0.00 0.00 82 1020.3
20260905231217 68 317 0.9 0.9 0.00 0.00 0.00 82 1020.5
20260905230713 68 314 0.9 0.9 0.00 0.00 0.00 81 1020.5
20260905230210 68 314 0.9 0.9 0.00 0.00 0.00 80 1020.5
20260905225710 68 312 1.7 1.7 0.00 0.00 0.00 79 1020.4
20260905225206 68 313 0.9 1.7 0.00 0.00 0.00 78 1020.5
20260905224705 68 334 0.0 0.0 0.00 0.00 0.00 78 1020.4
20260905224200 68 336 0.0 0.0 0.00 0.00 0.00 78 1020.2
20260905223656 69 336 0.0 0.0 0.00 0.00 0.00 79 1020.3
20260905223153 69 330 0.0 0.0 0.00 0.00 0.00 79 1020.2
20260905222648 69 334 0.0 0.0 0.00 0.00 0.00 78 1020.3
20260905222148 69 329 0.0 0.0 0.00 0.00 0.00 77 1020.4
20260905221644 69 316 0.0 0.0 0.00 0.00 0.00 77 1020.4
20260905221141 69 318 0.9 1.7 0.00 0.00 0.00 77 1020.2
20260905220636 69 332 0.0 0.0 0.00 0.00 0.00 79 1020.2
20260905220132 69 334 0.0 0.0 0.00 0.00 0.00 77 1020.1
20260905215631 69 318 0.9 1.7 0.00 0.00 0.00 75 1020.2
20260905215127 69 313 1.7 1.7 0.00 0.00 0.00 75 1020.3
20260905214623 69 328 0.0 0.0 0.00 0.00 0.00 77 1020.3
20260905214118 69 327 0.9 1.7 0.00 0.00 0.00 78 1020.2
20260905213613 69 331 0.0 0.0 0.00 0.00 0.00 78 1020.1
20260905213108 69 329 0.0 0.0 0.00 0.00 0.00 77 1020.2
20260905212603 69 314 0.0 0.0 0.00 0.00 0.00 76 1020.2
20260905212103 69 334 0.0 0.0 0.00 0.00 0.00 77 1020.1
20260905211558 69 330 0.0 0.0 0.00 0.00 0.00 79 1020.1
20260905211053 69 330 0.0 0.0 0.00 0.00 0.00 79 1020.1
20260905210549 69 328 0.0 0.0 0.00 0.00 0.00 75 1020.1
20260905210044 69 323 0.9 0.9 0.00 0.00 0.00 78 1020.1
20260905205543 69 328 0.9 0.9 0.00 0.00 0.00 76 1019.9
20260905205043 69 329 0.0 0.0 0.00 0.00 0.00 78 1019.8
20260905204538 69 334 0.0 0.0 0.00 0.00 0.00 78 1019.7
20260905204033 69 318 0.0 0.0 0.00 0.00 0.00 79 1019.7
20260905203532 69 332 0.0 0.0 0.00 0.00 0.00 79 1019.8
20260905203028 69 323 2.6 3.5 0.00 0.00 0.00 77 1020.1
20260905202523 69 323 0.0 0.0 0.00 0.00 0.00 78 1020.1
20260905202019 69 317 0.0 0.0 0.00 0.00 0.00 78 1020.3
20260905201514 69 341 0.0 0.0 0.00 0.00 0.00 79 1020.3
20260905201014 69 317 0.0 0.9 0.00 0.00 0.00 79 1020.2
20260905200509 69 318 0.0 0.0 0.00 0.00 0.00 78 1020.1
20260905200009 70 336 0.0 0.0 0.00 0.00 0.00 75 1020.0
20260905195503 70 321 1.7 2.6 0.00 0.00 0.00 76 1020.2
20260905194958 71 328 0.9 0.9 0.00 0.00 0.00 75 1020.1
20260905194457 70 314 0.9 0.9 0.00 0.00 0.00 76 1020.0
20260905193952 70 319 0.0 0.0 0.00 0.00 0.00 76 1020.2
20260905193452 70 314 2.6 2.6 0.00 0.00 0.00 75 1020.1
20260905192948 71 330 0.0 0.0 0.00 0.00 0.00 76 1020.4
20260905192443 71 316 1.7 2.6 0.00 0.00 0.00 78 1020.4
20260905191938 71 310 0.0 0.0 0.00 0.00 0.00 77 1020.4